Погода в Кругликове

Россия / Новосибирская область     55°50′17″N   83°51′13″E
темп.,
°C
ветер,
м/с
пор.,
м/с
влажн.,
%
обл.,
%
осадки,
мм/ч
давл.,
гПа
погр.,
м
4 марта, чт
чт401:00−13ююз5129386 0.1 1021396
04:00−14ююз51490100 0.0 1020472
07:00−12ююз61588100 0.0 1020566
10:00−10ююз71591100 0.1 1019682
13:00−7ююз71491100 0.6 1018708
16:00−5ююз71491100 0.3 1017754
19:00−5ююз61493100 0.6 1016832
22:00−5ююз71592100 0.5 1015829
5 марта, пт
пт501:00−5ююз71587100 0.6 1014682
04:00−6ююз61487100 0.1 1012623
07:00−6ююз61584100 0.1 1011592
10:00−6ююз71487100 0.0 1010651
13:00−4ююз81492100 0.6 1009900
16:00−1зюз91584100 0.4 10101494
19:00−5юз7148297 0.6 1014917
22:00−5юз71587100 0.0 10151048
6 марта, сб
сб601:00−6юз71391100 0.5 10151034
04:00−5юз61393100 0.4 1015990
07:00−5юз71393100 1.2 1015945
10:00−5юз81493100 0.9 1014924
13:00−4юз81492100 1.4 1014959
16:00−4юз81492100 0.7 10131087
19:00−5юз71491100 1.0 1012951
22:00−4юз71490100 0.2 1011905
7 марта, вс
вс701:00−3юз71492100 0.3 1010962
04:00−3юз71490100 0.3 1010953
07:00−3з51193100 0.6 1014693
10:00−7зюз4108495 0.1 1015386
13:00−5юз378097 0.1 1016442
16:00−1ю3797100 0.4 1014520
19:00−2ююз61394100 1.1 1012866
22:00−2ююз71492100 0.4 1011875
8 марта, пн
пн801:00−3ююз61395100 0.7 1010744
04:00−2юз71392100 0.2 1009835
07:00−2ююз71489100 0.3 1009747
10:00−2юз71391100 0.1 1010790
13:00−1юз61092100 0.1 1012781
16:00−2сз4696100 1.1 1013475
19:00−4сз2496100 1.8 1015259
22:00−6ссз2496100 0.3 1017150